URWWOAKB

Guest
Details From URWW - Gumrak
To OAKB - Kabul Intl
Flight Number -
Tags Generated
Created
Modified
Stats Distance 1,393 nm / 2,580 km
Max Altitude 0 ft / 0 m
Waypoints 3
Social Downloads 0
Likes 0
Share VATSIM

Download

Looking for another format? Having issues loading an existing format? Contact us
Advertisement - Login to hide

Notes

Generated

Route

URWW BGM18 OAKB

ID Type Via Altitude Latitude Longitude Leg Dist Tot Dist Heading (true) Name
O URWW APT - 0 ft / 0 m 48.78224˚ 44.35218˚ - 0 nm - GUMRAK
BGM18 FIX - 0 ft / 0 m 34.70168˚ 69.04396˚ 1382 nm 1382 nm 119° / 135° -
O OAKB APT - 0 ft / 0 m 34.57052˚ 69.19431˚ 10 nm 1392 nm 137° / 137° -

Altitude Profile

Advertisement - Login to hide

Weather


0- 5 10 15 20 25 30 35+ Temperature / ° C

Clouds and Precipitation
Forecast for 2018-05-23 12:00 UTC. Updated 2 hours ago

Ground ~20,000 ft ~40,000 ft Winds

URWW

Details ICAO URWW (VOG)
Name GUMRAK
Region Russia
Timezone Europe/Volgograd (UTC+3.0)
Stats Elevation 482 ft / 147 m (AMSL)
Location 48.780630° 44.352696°
Runways 3
Magnetic Variation 9.218° E

METAR

URWW 231300Z 09008MPS CAVOK 35/05 Q1019 R06/010070 NOSIG

Decode

TAF

Not found

Departure Runways

ID Width Length Bearing (true) Bearing (mag) Surface Threshold Offset Overrun Length
08 350 ft / 107 m 1,563 ft / 476 m 84.16° 74.94° Grass 0 ft / 0 m 0 ft / 0 m
11 161 ft / 49 m 8,180 ft / 2,493 m 120.19° 110.97° Asphalt 0 ft / 0 m 150 ft / 46 m
11R 330 ft / 101 m 5,508 ft / 1,679 m 120.08° 110.86° Grass 0 ft / 0 m 0 ft / 0 m
26 350 ft / 107 m 1,563 ft / 476 m 264.16° 254.94° Grass 0 ft / 0 m 0 ft / 0 m
29 161 ft / 49 m 8,180 ft / 2,493 m 300.22° 291.00° Asphalt 0 ft / 0 m 130 ft / 40 m
29L 330 ft / 101 m 5,508 ft / 1,679 m 300.09° 290.87° Grass 0 ft / 0 m 0 ft / 0 m

OAKB

Details ICAO OAKB (KBL)
Name Kabul Intl
Region Afghanistan
Timezone Asia/Kabul (UTC+4.5)
Stats Elevation 5,877 ft / 1,791 m (AMSL)
Location 34.565875° 69.212289°
Runways 1
Magnetic Variation 3.189° E

METAR

OAKB 231250Z 03008G18KT 330V080 9999 SCT110 23/M03 Q1020 NOSIG RMK A3012 BLU BLU

Decode

TAF

TAF OAKB 231105Z 2312/2412 33012G22KT SCT100 TEMPO 2312/2315 02025G35KT 5000 -BLDU BECMG 2316/2318 35012KT CAVOK BECMG 2320/2322 VRB02KT BECMG 2406/2408 35015KT FEW100

Decode

Destination Runways

ID Width Length Bearing (true) Bearing (mag) Surface Threshold Offset Overrun Length
11 164 ft / 50 m 11,483 ft / 3,500 m 107.39° 104.20° Asphalt 0 ft / 0 m 144 ft / 44 m
29 164 ft / 50 m 11,483 ft / 3,500 m 287.41° 284.22° Asphalt 0 ft / 0 m 190 ft / 58 m

Approach Navaids

Runway Type Ident Frequency Range Bearing (true) Bearing (mag) Slope Elevation
29 Localiser OAKB 110.50 MHz 18 nm / 33 km 287.33° 284.14° - 5,962 ft / 1,817 m (AMSL)
29 Glidescope OAKB 110.50 MHz 10 nm / 19 km 287.40° 284.21° 3.85° 5,943 ft / 1,811 m (AMSL)